Regional Weather Roundup
Issued by NWS Cleveland, OH

Home | Current Version | Previous Version | Graphics & Text | Print | Product List | Glossary On
Versions: 1 2 3 4 5 6 7 8 9 10 11 12 13 14 15 16 17 18 19 20 21 22 23 24 25 26 27 28 29 30 31 32 33 34 35 36 37 38 39 40 41 42 43 44 45 46 47 48 49 50
659
ASUS41 KCLE 230002
RWRCLE
OHIO REGIONAL WEATHER ROUNDUP
NATIONAL WEATHER SERVICE CLEVELAND, OH
700 PM EST MON JAN 22 2018

NOTE: "FAIR" INDICATES FEW OR NO CLOUDS BELOW 12,000 FEET WITH NO
SIGNIFICANT WEATHER AND/OR OBSTRUCTIONS TO VISIBILITY.

OHZ001>008-015>018-024>027-034-035-043-044-230100-
   NORTHWEST OHIO

CITY           SKY/WX    TMP DP  RH WIND       PRES   REMARKS
DEFIANCE       CLOUDY    52  46  80 S12       29.60S
FINDLAY        CLOUDY    53  45  74 S14       29.62S
TOLEDO EXPRESS CLOUDY    53  49  86 S12       29.61S
TOLEDO EXEC    CLOUDY    53  46  77 S18       29.62F
LIMA           CLOUDY    53  48  83 S14G25    29.62S
$$

OHZ009>014-019>023-028>033-038-089-230100-
   NORTHEAST OHIO

CITY           SKY/WX    TMP DP  RH WIND       PRES   REMARKS
CLE-HOPKINS    LGT RAIN  56  49  77 S15G29    29.72F
CLE-LAKEFRONT  LGT RAIN  56  46  69 S17G24    29.69F
CUY CO. ARPT   LGT RAIN  57  34  41 S17G23    29.71F
LORAIN-ELYRIA  LGT RAIN  53  44  71 S18G26    29.68F
ASHTABULA      LGT RAIN  56  46  69 S12       29.74F
AKRON-CANTON   LGT RAIN  54  45  71 S16G23    29.74F
WOOSTER        LGT RAIN  51  46  83 S9        29.73F
MANSFIELD      CLOUDY    52  48  86 S21G31    29.68F
YOUNGSTOWN     CLOUDY    57  44  62 S8        29.76F
$$

OHZ042-051>053-060>062-070>072-077>081-230100-
  SOUTHWEST OHIO

CITY           SKY/WX    TMP DP  RH WIND       PRES   REMARKS
CINC-COVINGTON CLOUDY    57  52  83 S20       29.62F
CINC-LUNKEN    CLOUDY    58  51  78 S13       29.65F
HAMILTON       CLOUDY    59  50  72 S7        29.64F
DAYTON         CLOUDY    54  50  86 S17G25    29.63F
WRIGHT-PAT AFB CLOUDY    55  47  72 S18       29.63F
DAYTON GENERAL CLOUDY    54  49  83 S12       29.63F
WILMINGTON     CLOUDY    54  49  83 S13       29.66F
$$

OHZ036-037-039>041-045>050-054>059-063>069-073>076-082>088-230100-
  CENTRAL AND SOUTHEAST OHIO

CITY           SKY/WX    TMP DP  RH WIND       PRES   REMARKS
COLUMBUS       CLOUDY    56  49  77 S13G23    29.70F
OSU AIRPORT    CLOUDY    54  49  83 S16G26    29.68F
BOLTON FIELD   CLOUDY    54  48  82 S14       29.70F
RICKENBACK AFB NOT AVBL
NEWARK         CLOUDY    55  47  74 S12G18    29.72F
MARION         CLOUDY    53  47  79 S18G24    29.67F
LANCASTER      MOCLDY    56  48  74 S16G30    29.72F
ZANESVILLE     LGT RAIN  56  47  71 S14       29.75F
NEW PHILLY     NOT AVBL
$$




USA.gov is the U.S. government's official web portal to all federal, state and local government web resources and services.